N6909T TUPJ-TJSJ

Flight info

Callsign N6909T
Flight time N/A
Altitude 4500
Route GPS
Aircraft C208/M-G/L

Departure

Time N/A
Airport Terrance B. Lettsome International Airport (TUPJ)

Arrival

Time 2026-05-03 21:04
Airport Luis Munoz Marin International Airport (TJSJ)
Time Latitude Longitude Altitude Speed Heading
2026-05-03 21:04 18.43854 -65.99981 15 ft 0 kts 336°
2026-05-03 21:15 18.43855 -65.99981 15 ft 0 kts 336°
2026-05-03 21:15 18.43866 -66.00001 15 ft 8 kts 296°
2026-05-03 21:15 18.43892 -66.00056 15 ft 16 kts 303°
2026-05-03 21:15 18.44046 -66.00139 15 ft 21 kts 336°
2026-05-03 21:16 18.44140 -66.00183 15 ft 24 kts 335°
2026-05-03 21:16 18.44157 -66.00324 15 ft 23 kts 250°
2026-05-03 21:16 18.44102 -66.00499 15 ft 27 kts 253°
2026-05-03 21:16 18.44045 -66.00764 15 ft 29 kts 248°
2026-05-03 21:17 18.43968 -66.00962 15 ft 29 kts 247°
2026-05-03 21:17 18.43914 -66.01091 15 ft 26 kts 246°
2026-05-03 21:17 18.43855 -66.01236 15 ft 17 kts 246°
2026-05-03 21:17 18.43819 -66.01325 15 ft 11 kts 263°
2026-05-03 21:18 18.43837 -66.01367 15 ft 0 kts 352°
2026-05-03 21:18 18.43848 -66.01369 15 ft 7 kts 352°
2026-05-03 21:18 18.43937 -66.01337 15 ft 21 kts 66°
2026-05-03 21:19 18.44028 -66.01111 15 ft 59 kts 67°
2026-05-03 21:19 18.44265 -66.00525 27 ft 108 kts 67°
2026-05-03 21:19 18.44565 -65.99779 296 ft 107 kts 67°
2026-05-03 21:19 18.44854 -65.99066 506 ft 112 kts 67°
2026-05-03 21:20 18.45186 -65.98265 553 ft 121 kts 62°
2026-05-03 21:20 18.45898 -65.97804 682 ft 129 kts
2026-05-03 21:20 18.46762 -65.97905 1040 ft 124 kts 345°
2026-05-03 21:20 18.47366 -65.98513 1314 ft 126 kts 288°
2026-05-03 21:21 18.47331 -65.99413 1643 ft 123 kts 259°
2026-05-03 21:21 18.47139 -66.00309 1884 ft 130 kts 255°
2026-05-03 21:21 18.46554 -66.01051 1992 ft 141 kts 208°
2026-05-03 21:21 18.45659 -66.01519 2013 ft 152 kts 219°
2026-05-03 21:22 18.45109 -66.02460 2022 ft 151 kts 248°
2026-05-03 21:22 18.44772 -66.03468 2186 ft 141 kts 251°
2026-05-03 21:22 18.44404 -66.04411 2430 ft 139 kts 243°
2026-05-03 21:22 18.43959 -66.05309 2678 ft 138 kts 242°
2026-05-03 21:23 18.43516 -66.06183 2915 ft 131 kts 242°
2026-05-03 21:23 18.43113 -66.06977 3141 ft 114 kts 242°
2026-05-03 21:23 18.42769 -66.07668 3368 ft 101 kts 245°
2026-05-03 21:23 18.42489 -66.08325 3606 ft 98 kts 247°
2026-05-03 21:24 18.42207 -66.08982 3868 ft 103 kts 247°
2026-05-03 21:24 18.41945 -66.09741 4135 ft 114 kts 256°
2026-05-03 21:24 18.41721 -66.10577 4375 ft 123 kts 257°
2026-05-03 21:24 18.41478 -66.11471 4601 ft 130 kts 257°
2026-05-03 21:25 18.41225 -66.12388 4814 ft 134 kts 257°
2026-05-03 21:25 18.40960 -66.13329 5060 ft 134 kts 257°
2026-05-03 21:25 18.40704 -66.14265 5312 ft 132 kts 258°
2026-05-03 21:25 18.40467 -66.15195 5563 ft 131 kts 259°
2026-05-03 21:26 18.40235 -66.16117 5815 ft 129 kts 259°
2026-05-03 21:26 18.39997 -66.17023 6070 ft 127 kts 257°
2026-05-03 21:26 18.39751 -66.17899 6364 ft 122 kts 256°
2026-05-03 21:26 18.39470 -66.18732 6660 ft 119 kts 252°
2026-05-03 21:27 18.39176 -66.19536 6953 ft 116 kts 252°
2026-05-03 21:27 18.38890 -66.20313 7243 ft 114 kts 252°
2026-05-03 21:27 18.38604 -66.21089 7538 ft 113 kts 252°
2026-05-03 21:27 18.38321 -66.21857 7835 ft 112 kts 252°
2026-05-03 21:28 18.38039 -66.22618 8131 ft 111 kts 252°
2026-05-03 21:28 18.37758 -66.23377 8418 ft 112 kts 252°
2026-05-03 21:28 18.37472 -66.24148 8675 ft 114 kts 252°
2026-05-03 21:28 18.37190 -66.24910 9012 ft 109 kts 252°
2026-05-03 21:29 18.36918 -66.25635 9368 ft 104 kts 252°
2026-05-03 21:29 18.36655 -66.26332 9701 ft 103 kts 252°
2026-05-03 21:29 18.36383 -66.27060 9925 ft 110 kts 252°
2026-05-03 21:29 18.36084 -66.27824 10142 ft 116 kts 249°
2026-05-03 21:30 18.35719 -66.28599 10354 ft 120 kts 247°
2026-05-03 21:30 18.35337 -66.29389 10561 ft 122 kts 247°
2026-05-03 21:30 18.34950 -66.30194 10744 ft 125 kts 247°
2026-05-03 21:30 18.34551 -66.31024 10902 ft 129 kts 247°
2026-05-03 21:31 18.34145 -66.31874 11049 ft 131 kts 247°
2026-05-03 21:31 18.33730 -66.32743 11180 ft 134 kts 247°
2026-05-03 21:31 18.33316 -66.33616 11282 ft 137 kts 247°
2026-05-03 21:31 18.32885 -66.34526 11363 ft 140 kts 247°
2026-05-03 21:32 18.32448 -66.35449 11441 ft 142 kts 247°
2026-05-03 21:32 18.32007 -66.36385 11519 ft 143 kts 247°
2026-05-03 21:32 18.31563 -66.37328 11596 ft 144 kts 247°
2026-05-03 21:32 18.31116 -66.38277 11662 ft 146 kts 247°
2026-05-03 21:33 18.30665 -66.39238 11715 ft 147 kts 247°
2026-05-03 21:33 18.30210 -66.40207 11766 ft 148 kts 247°
2026-05-03 21:33 18.29755 -66.41178 11817 ft 148 kts 247°
2026-05-03 21:33 18.29299 -66.42151 11867 ft 149 kts 247°
2026-05-03 21:34 18.27063 -66.47596 11909 ft 149 kts 250°
2026-05-03 21:34 18.26626 -66.48581 11961 ft 149 kts 247°
2026-05-03 21:34 18.26170 -66.49563 12011 ft 149 kts 247°
2026-05-03 21:34 18.25712 -66.50543 12061 ft 149 kts 247°
2026-05-03 21:35 18.25254 -66.51524 12111 ft 149 kts 247°
2026-05-03 21:35 18.24811 -66.52509 12160 ft 149 kts 251°
2026-05-03 21:35 18.24501 -66.53539 12212 ft 148 kts 256°
2026-05-03 21:35 18.24231 -66.54586 12262 ft 148 kts 257°
2026-05-03 21:36 18.23972 -66.55618 12311 ft 148 kts 257°
2026-05-03 21:36 18.23768 -66.56690 12362 ft 147 kts 264°
2026-05-03 21:36 18.23687 -66.57748 12412 ft 147 kts 266°
2026-05-03 21:36 18.23681 -66.58824 12464 ft 147 kts 271°
2026-05-03 21:37 18.23719 -66.59900 12495 ft 148 kts 272°
2026-05-03 21:37 18.23763 -66.60992 12501 ft 150 kts 272°
2026-05-03 21:37 18.23808 -66.62094 12502 ft 151 kts 272°
2026-05-03 21:37 18.23854 -66.63201 12501 ft 152 kts 272°
2026-05-03 21:38 18.23851 -66.64314 12501 ft 152 kts 268°
2026-05-03 21:38 18.23800 -66.65428 12500 ft 153 kts 267°
2026-05-03 21:38 18.23741 -66.66544 12500 ft 153 kts 267°
2026-05-03 21:38 18.23682 -66.67660 12500 ft 153 kts 267°
2026-05-03 21:39 18.23622 -66.68775 12500 ft 153 kts 267°
2026-05-03 21:39 18.23563 -66.69895 12500 ft 153 kts 267°